Find Starlink 5806

NORAD ID: 56007 Int'l Des: 2023-042 Owner: SPXS Country: US Constellation: starlink operational
LEOCIRCULAR

現在のビュー

3D地球を読み込み中...

About Starlink 5806

Starlink 5806 (NORAD 56007) is a starlink constellation satellite (v1.5) launched Mar 24, 2023 by SPXS of US. It operates in LEO, CIRCULAR orbit with a mass of 305.00 kg.

Starlink 5806について

説明を読み込み中...

次回通過

Passes for default location (London). Set your location on the main map for personalized predictions.

高度履歴

Loading altitude history...

軌道要素

1 56007U 23042X 26171.11137290 .00000522 00000-0 28497-4 0 9993
2 56007 43.0009 201.1666 0001235 267.5577 92.5134 15.27588263178533
Epoch: Jun 20, 2026 • Age: 30 hours

現在のステータス

高度 482.4 km
速度 7.63 km/s
衛星直下点 16.01°N, 173.49°E
打ち上げ日 Mar 24, 2023
運用期間 3.2 years
タイプ internet

技術仕様

分類 Payload
質量 305.00 kg
乾燥質量 290.00 kg
総質量 305.00 kg
長さ 0.20 m
直径 2.80 m
スパン 9.00 m
形状 Box + pan
製造者 SPXS
バスタイプ Starlink
フェーズステータス In Orbit
所有者/国 SPXS/US

Most Searched